Woodland Hills, California, United States (91364)
Lat: 34.17N, Lon: 118.61W
Wx Zone: CAZ547
Local Info
Past Weather Observations for Today

NOTE: This archive is for the closest National Weather Service station to Woodland Hills. Information may differ from the station used for current weather conditions.

Click here for Long-term Archive

Time Weather Temperature Dewpoint Humidity Pressure Winds Precip Visibility
17:51
Overcast
64°F / 18°C 55°F / 13°C 73% 29.86 in
(1011 mb)
S 8.1 mph
(S 13 kph)
- 10SM
17:20
Overcast
64°F / 18°C 55°F / 13°C 73% 29.83 in
(1010 mb)
SSE 8.1 mph
(SSE 13 kph)
- 10SM
16:51
Overcast
64°F / 18°C 55°F / 13°C 73% 29.86 in
(1011 mb)
S 9.2 mph
(S 15 kph)
- 10SM
16:19
Overcast
64°F / 18°C 54°F / 12°C 68% 29.86 in
(1011 mb)
S 9.2 mph
(S 15 kph)
- 10SM
15:51
Overcast
66°F / 19°C 54°F / 12°C 64% 29.86 in
(1011 mb)
SSE 8.1 mph
(SSE 13 kph)
- 10SM
14:51
Overcast
66°F / 19°C 52°F / 11°C 60% 29.89 in
(1012 mb)
SSE 6.9 mph
(SSE 11 kph)
- 10SM
13:51
Overcast
66°F / 19°C 52°F / 11°C 60% 29.89 in
(1012 mb)
SSE 5.8 mph
(SSE 9 kph)
- 10SM
12:51
Overcast
66°F / 19°C 52°F / 11°C 60% 29.89 in
(1012 mb)
S 5.8 mph
(S 9 kph)
- 10SM
11:51
Overcast
66°F / 19°C 54°F / 12°C 64% 29.92 in
(1013 mb)
Variable 3.5 mph
(Variable 6 kph)
- 10SM
10:51
Overcast
66°F / 19°C 54°F / 12°C 64% 29.95 in
(1014 mb)
SW 5.8 mph
(SW 9 kph)
- 10SM
09:51
Mostly Cloudy
66°F / 19°C 54°F / 12°C 64% 29.98 in
(1015 mb)
S 4.6 mph
(S 7 kph)
- 10SM
08:51
Mostly Cloudy
64°F / 18°C 55°F / 13°C 73% 29.98 in
(1015 mb)
NNE 3.5 mph
(NNE 6 kph)
- 10SM
07:51
Mostly Cloudy
Hazy
63°F / 17°C 55°F / 13°C 77% 29.98 in
(1015 mb)
Calm - 6SM
07:35
Overcast
Hazy
61°F / 16°C 55°F / 13°C 83% 29.98 in
(1015 mb)
Calm - 6SM
06:51
Mostly Cloudy
Fog And Mist
59°F / 15°C 55°F / 13°C 88% 29.98 in
(1015 mb)
Calm - 6SM
06:41
Mostly Cloudy
Fog And Mist
59°F / 15°C 55°F / 13°C 88% 29.98 in
(1015 mb)
Calm - 6SM
05:51
Partly Cloudy
59°F / 15°C 54°F / 12°C 82% 29.98 in
(1015 mb)
S 3.5 mph
(S 6 kph)
- 7SM
05:48
Partly Cloudy
59°F / 15°C 54°F / 12°C 82% 29.98 in
(1015 mb)
S 3.5 mph
(S 6 kph)
- 7SM
04:51
Overcast
61°F / 16°C 55°F / 13°C 83% 29.95 in
(1014 mb)
Calm - 7SM
04:27
Overcast
Hazy
61°F / 16°C 55°F / 13°C 83% 29.95 in
(1014 mb)
Calm - 6SM
03:51
Overcast
Hazy
61°F / 16°C 55°F / 13°C 83% 29.95 in
(1014 mb)
Calm - 6SM
02:51
Overcast
61°F / 16°C 54°F / 12°C 77% 29.95 in
(1014 mb)
S 3.5 mph
(S 6 kph)
- 9SM
01:51
Overcast
61°F / 16°C 52°F / 11°C 72% 29.98 in
(1015 mb)
Calm - 10SM
00:51
Overcast
61°F / 16°C 55°F / 13°C 83% 29.98 in
(1015 mb)
Calm - 9SM
00:25
Mostly Cloudy
63°F / 17°C 57°F / 14°C 83% 29.98 in
(1015 mb)
Calm - 9SM
00:17
Partly Cloudy
61°F / 16°C 57°F / 14°C 88% 29.98 in
(1015 mb)
Calm - 8SM
Time Weather Temperature Dewpoint Humidity Pressure Winds Precip Visibility


Weather for websites

WeatherForYou.com, LLC is not responsible for any damages or problems caused by this service. Current weather conditions are obtained from the closest station including government and personal stations which may have varying degrees of accuracy. Weather forecasts are derived from the NOAA NDFD. Like all things, this site belongs to Jesus Christ... He just trusts me to maintain it. If you have any questions or comments email webmaster@weatherforyou.com

Copyright © 2014, WeatherForYou.com LLC. All rights reserved.